STARLINK-1166 (45060 NORAD) Tracking and Keplerian Element Data

This shows tracking and keplerian element data for the satellite.

Feedback or suggestion? Click here.




ElementValue
Catalog45060
NameSTARLINK-1166
Epoch Orbit402
Epoch Day52.91667824
Epoch Year2020
RAAN120.8983
Inclination52.9972
Eccentricity0.0001538
Argument of Perigee62.1276
Mean Anonmoly176.0597
Mean Motion15.51269243
Decay Rate0.00120835
L11 45060U 20006S 20052.91667824 .00120835 00000-0 20031-2 0 9992
L22 45060 52.9972 120.8983 0001538 62.1276 176.0597 15.51269243 4022

Live tracking and technical data element details for STARLINK-1166 (NORAD 45060). STARLINK-1166 can be tracked NOW for your location showing map with azimuth and elevation plus other details from your city location.

Track the satellite on the map from your city or location and see movement details for azimuth, elevation, latitude, longitude, range, height, and movement on the map or in text.







IsCatalogInMostPopularTable: catalog: 45060, numindb: 6
Update: records affected: 1



GetName: 45060 STARLINK-1166

Hit Count: updated at: Mon, 24 Feb 2020 17:31:32 GMT